OBJECT K, 53453

Orbit data source: Space-Track

You're viewing an Uncataloged Satellite

Recently launched and/or uncataloged satellites may have evolving metadata. Metadata may include but not limited to: Owner, Maufacturer, Bus, Motor, and Mission.

OBJECT K, 53453 is a satellite owned by Changguang WJ (CN) in SSO that was launched on Wed, 10 Aug 2022 UTC via a CHANG ZHENG 6 launch vehicle from the Taiyaun Space Center, China (TSC). Unknown objects in Earth's orbit typically refer to objects detected orbiting the Earth but have not yet been identified or cataloged. These objects could be anything from previously untracked satellites, spent rocket stages, debris from satellite collisions, or even natural meteoroids temporarily captured by Earth's gravity.

Loading next visibility...
Identifier
53453, 2022-098K
Orbit
SSO
Country
Flag of CNCN / PRC
Related business
Manufacturer
Changguang WJ
Mission
Operational Commercial Imaging
Bus & Motor
JL-1, Unknown motor
Mass
42 kg wet, 42 kg dry
Launch date (UTC)
2022-08-10 (4 years ago)
Launch vehicle
CHANG ZHENG 6
Launch site
Taiyaun Space Center, China (TSC)
Object type
Unknown
Shape & HBR
Box + 2 Pan, 0.8 m
Radar Cross Section
2.000 m², Medium (>0.1 m² and < 1m²)

Expand to show TLE details & history
Last TLE update: 1 day ago

TLE from 1 day ago
0 OBJECT K
1 53453U 22098K   26172.49471819  .00082056  00000-0  59548-3 0  9997
2 53453  97.5591 304.5751 0002209 226.6353 133.4726 15.73150550215436
Epoch: 2026-06-21T11:52Z
TLE epoch observation values (Epoch: 2026-06-21T11:52:23.651Z)
Latitude
-0.00009°
Longitude
-143.21761°
Altitude
354.08 km
Speed
7.696 km/s
True Right ascension
20h 18m 18s
True Declination
0° 00' 00"
Sunlit
Object was in full shadow at epoch
Visualization orbit readout
Latitude
Unknown
Longitude
Unknown
Altitude
Unknown
Speed
Unknown
Apparent Right ascension
Unknown
Apparent Declination
Unknown
Sunlit
N/A
Visualization observer readout
Local Sidereal Time
00:50:31
Azimuth
Unknown
Elevation
Unknown
Doppler factor
Unknown
Orbital elements
Apogee altitude
348.287 km
Perigee altitude
345.316 km
Semi-major axis
6,724.938 km
Eccentricity
0.00022
Inclination
97.5591°
RAAN
304.5751°
Arg. of periapsis
226.6353°
True anomaly
133.49097°
Mean anomaly
133.4726°
Eccentric anomaly
133.48178°
Mean motion
3.9356 °/min
Orbital period
91.47 mins
BSTAR
0.00059548
Loading maneuver chart data...
Computing Atmospheric mass density...
Loading historical data...
Loading historical data...
Loading historical data...
Loading historical data...
Loading historical data...
Loading historical data...
Loading historical data...

Documentation

Showing up to 5 results
|